This is the latest recevied weather packets stored in our database for station/object KB3UMW-13. If no packets are shown the sender has not sent any weather packets the latest 10 day(s).
| Time | Temp. | Humidity | Pressure | Rain* | Wind** | Luminosity | Snow |
|---|---|---|---|---|---|---|---|
| 1777559284 | 8.89° C | 87% | 1011 hPa | 0 mm | - | 699 W/m² | - |
| 1777558979 | 8.33° C | 83% | 1010.8 hPa | 0 mm | - | 112 W/m² | - |
| 1777558675 | 8.89° C | 81% | 1010.6 hPa | 0 mm | - | 461 W/m² | - |
| 1777558371 | 8.33° C | 82% | 1010.7 hPa | 0 mm | - | 167 W/m² | - |
| 1777558067 | 10° C | 82% | 1010.4 hPa | 0 mm | - | 186 W/m² | - |
| 1777557764 | 9.44° C | 84% | 1010.6 hPa | 0 mm | - | 706 W/m² | - |
| 1777557460 | 8.89° C | 82% | 1010.5 hPa | 0 mm | - | 168 W/m² | - |
| 1777557157 | 8.33° C | 83% | 1010.7 hPa | 0 mm | - | 150 W/m² | - |
| 1777556852 | 8.33° C | 89% | 1010.5 hPa | 0 mm | - | 159 W/m² | - |
| 1777556549 | 7.78° C | 85% | 1010.6 hPa | 0 mm | - | 191 W/m² | - |
| 1777556248 | 8.33° C | 86% | 1010.7 hPa | 0 mm | - | 184 W/m² | - |
| 1777555945 | 8.33° C | 86% | 1010.5 hPa | 0 mm | - | 148 W/m² | - |
| 1777555640 | 8.33° C | 84% | 1010.5 hPa | 0 mm | - | 210 W/m² | - |
| 1777555337 | 8.89° C | 87% | 1010.4 hPa | 0 mm | - | 233 W/m² | - |
| 1777555034 | 8.89° C | 88% | 1010 hPa | 0 mm | - | 253 W/m² | - |
| 1777554731 | 8.33° C | 90% | 1010.3 hPa | 0 mm | - | 176 W/m² | - |
| 1777554428 | 8.89° C | 85% | 1010.2 hPa | 0 mm | - | 134 W/m² | - |
| 1777554124 | 8.89° C | 88% | 1010 hPa | 0 mm | - | 171 W/m² | - |
| 1777553821 | 8.33° C | 88% | 1009.9 hPa | 0 mm | - | 188 W/m² | - |
| 1777553517 | 7.78° C | 88% | 1010.1 hPa | 0 mm | - | 137 W/m² | - |
| 1777553213 | 7.78° C | 90% | 1010.2 hPa | 0 mm | - | 161 W/m² | - |
| 1777552909 | 7.78° C | 88% | 1009.9 hPa | 0 mm | - | 175 W/m² | - |
| 1777552604 | 7.78° C | 89% | 1009.8 hPa | 0 mm | - | 145 W/m² | - |
| 1777552301 | 7.78° C | 88% | 1010.2 hPa | 0 mm | - | 210 W/m² | - |
| 1777551997 | 7.78° C | 90% | 1009.8 hPa | 0 mm | - | 106 W/m² | - |
* Rain latest hour (hover to see other rain measurements)
** Current wind speed in m/s (hover to see current wind gust speed)